Вернуться в каталог

STARLINK-11541

АктивенСвязьVLEO
NORAD 63015·PAYLOAD·🇺🇸 United States

Запущен Feb 15, 2025 с Cape Canaveral Space Force Station

Loading…

Ближайшие Пролёты (ближайшие 24 часа)

TLE

СвежийSource: CelesTrak SupGP

Эпоха: Sep 15, 2026, 03:51 UTC

1 63015C 25032L   26258.16090278  .00093120  00000+0  72292-3 0  2580
2 63015  43.0000 132.9778 0001649 272.5298 171.2065 15.70803422    11

Отслеживайте STARLINK-11541 в реальном времени с AllMySat

Download on the App Store